Regional Weather Roundup
Issued by NWS Cleveland, OH

Home | Current Version | Previous Version | Graphics & Text | Print | Product List | Glossary On
Versions: 1 2 3 4 5 6 7 8 9 10 11 12 13 14 15 16 17 18 19 20 21 22 23 24 25 26 27 28 29 30 31 32 33 34 35 36 37 38 39 40 41 42 43 44 45 46 47 48 49 50
000
ASUS41 KCLE 242300
RWRCLE
OHIO REGIONAL WEATHER ROUNDUP
NATIONAL WEATHER SERVICE WILMINGTON, OH
700 PM EDT SUN JUL 24 2016

NOTE: "FAIR" INDICATES FEW OR NO CLOUDS BELOW 12,000 FEET WITH NO
SIGNIFICANT WEATHER AND/OR OBSTRUCTIONS TO VISIBILITY.

OHZ001>008-015>018-024>027-034-035-043-044-250000-
   NORTHWEST OHIO

CITY           SKY/WX    TMP DP  RH WIND       PRES   REMARKS
DEFIANCE       FAIR      89  74  60 S10       29.91F HX  98
FINDLAY        FAIR      86  70  58 SW12      29.93S HX  90
TOLEDO EXPRESS FAIR      84  77  79 SW5       29.91F HX  94
TOLEDO EXEC    FAIR      83  74  74 S7        29.93S
LIMA           FAIR      86  74  67 S7        29.96F HX  94
$$

OHZ009>014-019>023-028>033-038-089-250000-
   NORTHEAST OHIO

CITY           SKY/WX    TMP DP  RH WIND       PRES   REMARKS
CLE-HOPKINS    FAIR      83  67  58 S8        29.97S
CLE-LAKEFRONT  FAIR      82  73  74 N5        29.94F
CUY CO. ARPT   MOSUNNY   86  73  66 S6        29.97F HX  93
LORAIN-ELYRIA  FAIR      80  70  71 S6        29.96S
ASHTABULA      FAIR      80  72  76 W5        29.99S
AKRON-CANTON   PTSUNNY   80  72  76 CALM      29.99F
WOOSTER        NOT AVBL
MANSFIELD      FAIR      84  70  62 S9        29.98F
YOUNGSTOWN     CLOUDY    80  72  76 CALM      30.00F
$$

OHZ042-051>053-060>062-070>072-077>081-250000-
  SOUTHWEST OHIO

CITY           SKY/WX    TMP DP  RH WIND       PRES   REMARKS
CINC-COVINGTON FAIR      91  72  53 SW9       29.98S HX  98
CINC-LUNKEN    FAIR      92  73  53 SW7       29.96S HX 100
HAMILTON       FAIR      93  71  48 SW7       29.97S HX 100
DAYTON         NOT AVBL
WRIGHT-PAT AFB NOT AVBL
DAYTON GENERAL FAIR      92  71  50 W7        29.97S HX  98
WILMINGTON     FAIR      90  73  57 SW7       29.97F HX  98
$$

OHZ036-037-039>041-045>050-054>059-063>069-073>076-082>088-250000-
  CENTRAL AND SOUTHEAST OHIO

CITY           SKY/WX    TMP DP  RH WIND       PRES   REMARKS
COLUMBUS       PTSUNNY   83  72  69 VRB5      29.97S
OSU AIRPORT    FAIR      84  73  69 CALM      29.98S HX  90
BOLTON FIELD   SUNNY     84  73  70 CALM      29.99S HX  91
RICKENBACK AFB NOT AVBL
NEWARK         FAIR      82  72  71 S6        29.97F
MARION         FAIR      84  68  58 S9        29.96F
LANCASTER      FAIR      83  73  72 N3        29.99R
ZANESVILLE     FAIR      85  69  58 SE3       29.99S
NEW PHILLY     NOT AVBL
$$




USA.gov is the U.S. government's official web portal to all federal, state and local government web resources and services.